When you browse on this site, cookies collect data to enhance your experience and personalize the content and advertising you see.
Visit our Privacy Policy to learn more. By continuing to use the site, you agree to this use of cookies and data.
  • In Lithuania
  • List of Countries
  • For 7 days
  • Water Temperature
  • Satellite Maps
  • Weather Map
  • Weather Widgets
  • user-avatar
    Login

    Hourly Weather Komarovka

    Today, 21 May, Tuesday

    Time Temperature Precipitation Wind Pressure Humidity
    00:00 +7°C° 0 mm 1 mps 743 mmHg 59%
    01:00 +7°C° 0 mm 1 mps 743 mmHg 63%
    02:00 +6°C° 0 mm 1 mps 743 mmHg 66%
    03:00 +6°C° 0 mm 1 mps 742 mmHg 70%
    04:00 +7°C° 0 mm 1 mps 742 mmHg 68%
    05:00 +8°C° 0 mm 1 mps 742 mmHg 67%
    06:00 +8°C° 0 mm 1 mps 742 mmHg 65%
    07:00 +10°C° 0 mm 1 mps 742 mmHg 59%
    08:00 +12°C° 0 mm 1 mps 741 mmHg 54%
    09:00 +14°C° 0 mm 1 mps 741 mmHg 48%
    10:00 +14°C° 0 mm 2 mps 741 mmHg 45%
    11:00 +15°C° 0 mm 2 mps 741 mmHg 42%
    12:00 +16°C° 0 mm 3 mps 741 mmHg 39%
    13:00 +16°C° 0 mm 3 mps 741 mmHg 40%
    14:00 +16°C° 0 mm 3 mps 741 mmHg 41%
    15:00 +16°C° 0 mm 3 mps 740 mmHg 42%
    16:00 +15°C° 0.3 mm 2 mps 740 mmHg 49%
    17:00 +14°C° 0.3 mm 2 mps 740 mmHg 56%
    18:00 +13°C° 0.3 mm 1 mps 740 mmHg 63%
    19:00 +12°C° 0.3 mm 1 mps 740 mmHg 70%
    20:00 +10°C° 0.3 mm 1 mps 741 mmHg 77%
    21:00 +9°C° 0.3 mm 1 mps 741 mmHg 83%
    22:00 +9°C° 0.1 mm 1 mps 741 mmHg 86%
    23:00 +8°C° 0.1 mm 1 mps 741 mmHg 88%

    Tomorrow, 22 May, Wednesday

    Time Temperature Precipitation Wind Pressure Humidity
    00:00 +7°C° 0.1 mm 2 mps 742 mmHg 91%
    01:00 +7°C° 0.1 mm 2 mps 742 mmHg 91%
    02:00 +6°C° 0.1 mm 2 mps 742 mmHg 92%
    03:00 +6°C° 0.1 mm 2 mps 742 mmHg 92%
    04:00 +6°C° 0 mm 2 mps 743 mmHg 91%
    05:00 +6°C° 0 mm 2 mps 743 mmHg 90%
    06:00 +7°C° 0 mm 2 mps 744 mmHg 89%
    07:00 +8°C° 0.3 mm 2 mps 744 mmHg 83%
    08:00 +9°C° 0.3 mm 3 mps 744 mmHg 76%
    09:00 +11°C° 0.3 mm 3 mps 744 mmHg 70%
    10:00 +11°C° 0.5 mm 3 mps 744 mmHg 66%
    11:00 +12°C° 0.5 mm 4 mps 744 mmHg 63%
    12:00 +12°C° 0.5 mm 4 mps 744 mmHg 59%
    13:00 +13°C° 0.5 mm 4 mps 744 mmHg 55%
    14:00 +13°C° 0.5 mm 4 mps 744 mmHg 51%
    15:00 +14°C° 0.5 mm 5 mps 744 mmHg 47%
    16:00 +14°C° 0 mm 4 mps 744 mmHg 46%
    17:00 +14°C° 0 mm 4 mps 744 mmHg 45%
    18:00 +13°C° 0 mm 3 mps 744 mmHg 44%
    19:00 +12°C° 0 mm 2 mps 744 mmHg 51%
    20:00 +10°C° 0 mm 2 mps 744 mmHg 59%
    21:00 +9°C° 0 mm 1 mps 744 mmHg 66%
    22:00 +8°C° 0.3 mm 1 mps 744 mmHg 72%
    23:00 +7°C° 0.3 mm 1 mps 744 mmHg 78%

    Day after tomorrow, 23 May, Thursday

    Time Temperature Precipitation Wind Pressure Humidity
    00:00 +6°C° 0.3 mm 1 mps 744 mmHg 84%
    01:00 +6°C° 0 mm 1 mps 744 mmHg 87%
    02:00 +5°C° 0 mm 1 mps 745 mmHg 90%
    03:00 +5°C° 0 mm 1 mps 745 mmHg 92%
    04:00 +5°C° 0 mm 1 mps 745 mmHg 89%
    05:00 +6°C° 0 mm 1 mps 746 mmHg 86%
    06:00 +6°C° 0 mm 1 mps 746 mmHg 82%
    07:00 +7°C° 0 mm 2 mps 747 mmHg 70%
    08:00 +8°C° 0 mm 2 mps 747 mmHg 58%
    09:00 +10°C° 0 mm 2 mps 747 mmHg 46%
    10:00 +11°C° 0 mm 3 mps 747 mmHg 41%
    11:00 +12°C° 0 mm 3 mps 747 mmHg 36%
    12:00 +13°C° 0 mm 3 mps 747 mmHg 30%
    13:00 +13°C° 0 mm 3 mps 747 mmHg 30%
    14:00 +14°C° 0 mm 4 mps 747 mmHg 29%
    15:00 +14°C° 0 mm 4 mps 747 mmHg 28%
    16:00 +14°C° 0 mm 3 mps 748 mmHg 28%
    17:00 +14°C° 0 mm 3 mps 748 mmHg 29%
    18:00 +14°C° 0 mm 3 mps 748 mmHg 30%
    19:00 +13°C° 0 mm 2 mps 749 mmHg 36%
    20:00 +10°C° 0 mm 1 mps 749 mmHg 42%
    21:00 +8°C° 0 mm 1 mps 749 mmHg 49%
    22:00 +8°C° 0 mm 1 mps 750 mmHg 50%
    23:00 +7°C° 0 mm 1 mps 750 mmHg 51%

    24 May, Friday

    Time Temperature Precipitation Wind Pressure Humidity
    00:00 +7°C° 0 mm 1 mps 750 mmHg 53%
    01:00 +7°C° 0 mm 1 mps 750 mmHg 53%
    02:00 +7°C° 0 mm 2 mps 750 mmHg 53%
    03:00 +7°C° 0 mm 2 mps 750 mmHg 54%
    04:00 +7°C° 0 mm 2 mps 750 mmHg 58%
    05:00 +8°C° 0 mm 2 mps 751 mmHg 62%
    06:00 +8°C° 0 mm 2 mps 751 mmHg 66%
    07:00 +10°C° 0 mm 3 mps 750 mmHg 58%
    08:00 +12°C° 0 mm 4 mps 750 mmHg 50%
    09:00 +14°C° 0 mm 5 mps 750 mmHg 41%
    10:00 +15°C° 0 mm 5 mps 750 mmHg 39%
    11:00 +15°C° 0 mm 5 mps 749 mmHg 36%
    12:00 +16°C° 0 mm 6 mps 749 mmHg 34%
    13:00 +16°C° 0 mm 6 mps 749 mmHg 36%
    14:00 +16°C° 0 mm 6 mps 749 mmHg 37%
    15:00 +16°C° 0 mm 6 mps 748 mmHg 39%
    16:00 +13°C° 0.5 mm 5 mps 748 mmHg 53%
    17:00 +10°C° 0.5 mm 5 mps 748 mmHg 68%
    18:00 +8°C° 0.5 mm 4 mps 747 mmHg 82%
    19:00 +8°C° 0.8 mm 4 mps 747 mmHg 83%
    20:00 +8°C° 0.8 mm 4 mps 746 mmHg 84%
    21:00 +8°C° 0.8 mm 4 mps 746 mmHg 86%
    22:00 +10°C° 0.1 mm 4 mps 745 mmHg 84%
    23:00 +10°C° 0.1 mm 5 mps 745 mmHg 83%

    25 May, Saturday

    Time Temperature Precipitation Wind Pressure Humidity
    00:00 +13°C° 0.1 mm 5 mps 744 mmHg 81%
    01:00 +13°C° 0 mm 5 mps 744 mmHg 81%
    02:00 +12°C° 0 mm 4 mps 744 mmHg 80%
    03:00 +12°C° 0 mm 4 mps 744 mmHg 80%
    04:00 +13°C° 0.1 mm 4 mps 744 mmHg 78%
    05:00 +13°C° 0.1 mm 4 mps 744 mmHg 77%
    06:00 +14°C° 0.1 mm 4 mps 744 mmHg 75%
    07:00 +14°C° 0.1 mm 5 mps 744 mmHg 73%
    08:00 +15°C° 0.1 mm 5 mps 743 mmHg 71%
    09:00 +15°C° 0.1 mm 5 mps 743 mmHg 69%
    10:00 +17°C° 0.1 mm 6 mps 743 mmHg 58%
    11:00 +21°C° 0.1 mm 6 mps 742 mmHg 48%
    12:00 +23°C° 0.1 mm 7 mps 742 mmHg 38%
    13:00 +22°C° 0.1 mm 6 mps 742 mmHg 40%
    14:00 +22°C° 0.1 mm 6 mps 741 mmHg 43%
    15:00 +21°C° 0.1 mm 6 mps 741 mmHg 45%
    16:00 +19°C° 1 mm 5 mps 741 mmHg 61%
    17:00 +15°C° 1 mm 4 mps 741 mmHg 76%
    18:00 +12°C° 1 mm 3 mps 741 mmHg 91%
    19:00 +12°C° 0.6 mm 3 mps 741 mmHg 92%
    20:00 +11°C° 0.6 mm 3 mps 742 mmHg 93%
    21:00 +12°C° 0.6 mm 2 mps 742 mmHg 95%
    22:00 +10°C° 0.1 mm 3 mps 742 mmHg 93%
    23:00 +9°C° 0.1 mm 3 mps 742 mmHg 92%

    26 May, Sunday

    Time Temperature Precipitation Wind Pressure Humidity
    00:00 +8°C° 0.1 mm 3 mps 743 mmHg 91%
    01:00 +7°C° 0 mm 3 mps 743 mmHg 91%
    02:00 +5°C° 0 mm 3 mps 744 mmHg 91%
    03:00 +5°C° 0 mm 3 mps 744 mmHg 90%
    04:00 +5°C° 0 mm 3 mps 745 mmHg 88%
    05:00 +5°C° 0 mm 3 mps 745 mmHg 86%
    06:00 +7°C° 0 mm 3 mps 746 mmHg 84%
    07:00 +7°C° 0.6 mm 3 mps 745 mmHg 84%
    08:00 +7°C° 0.6 mm 3 mps 745 mmHg 85%
    09:00 +7°C° 0.6 mm 3 mps 745 mmHg 85%
    10:00 +6°C° 0.5 mm 4 mps 745 mmHg 79%
    11:00 +7°C° 0.5 mm 4 mps 746 mmHg 73%
    12:00 +8°C° 0.5 mm 5 mps 746 mmHg 67%
    13:00 +8°C° 0.4 mm 5 mps 747 mmHg 61%
    14:00 +9°C° 0.4 mm 5 mps 747 mmHg 55%
    15:00 +10°C° 0.4 mm 6 mps 748 mmHg 49%
    16:00 +10°C° 0.2 mm 5 mps 748 mmHg 48%
    17:00 +9°C° 0.2 mm 5 mps 749 mmHg 47%
    18:00 +9°C° 0.2 mm 5 mps 749 mmHg 47%
    19:00 +8°C° 0 mm 4 mps 750 mmHg 51%
    20:00 +7°C° 0 mm 4 mps 750 mmHg 56%
    21:00 +7°C° 0 mm 3 mps 751 mmHg 60%
    22:00 +5°C° 0 mm 3 mps 751 mmHg 66%
    23:00 +5°C° 0 mm 3 mps 752 mmHg 71%
    Show more